2023/01/14 00:00:00,32.7, 4.9
2023/01/14 00:10:00,32.7, 5.0
2023/01/14 00:20:00,32.7, 4.9
2023/01/14 00:30:00,32.8, 4.7
2023/01/14 00:40:00,32.8, 4.9
2023/01/14 00:50:00,32.8, 4.8
2023/01/14 01:00:00,32.8, 5.2
2023/01/14 01:10:00,32.9, 4.9
2023/01/14 01:20:00,32.9, 4.8
2023/01/14 01:30:00,32.9, 4.9
2023/01/14 01:40:00,33.0, 5.0
2023/01/14 01:50:00,32.9, 5.0
2023/01/14 02:00:00,32.8, 5.0
2023/01/14 02:10:00,32.8, 5.2
2023/01/14 02:20:00,32.8, 5.0
2023/01/14 02:30:00,32.7, 5.0
2023/01/14 02:40:00,32.7, 5.0
2023/01/14 02:50:00,32.7, 5.0
2023/01/14 03:00:00,32.7, 5.1
2023/01/14 03:10:00,32.4, 4.9
2023/01/14 03:20:00,32.4, 5.1
2023/01/14 03:30:00,32.3, 5.1
2023/01/14 03:40:00,32.2, 5.1
2023/01/14 03:50:00,32.3, 5.0
2023/01/14 04:00:00,32.1, 5.1
2023/01/14 04:10:00,32.0, 5.1
2023/01/14 04:20:00,32.0, 4.9
2023/01/14 04:30:00,32.0, 4.9
2023/01/14 04:40:00,32.1, 4.6
2023/01/14 04:50:00,32.1, 4.9
2023/01/14 05:00:00,32.3, 4.9
2023/01/14 05:10:00,32.7, 4.8
2023/01/14 05:20:00,33.0, 5.2
2023/01/14 05:30:00,32.7, 4.8
2023/01/14 05:40:00,32.7, 4.7
2023/01/14 05:50:00,32.3, 4.6
2023/01/14 06:00:00,31.9, 5.2
2023/01/14 06:10:00,31.8, 4.8
2023/01/14 06:20:00,31.8, 4.7
2023/01/14 06:30:00,31.8, 4.8
2023/01/14 06:40:00,31.7, 4.6
2023/01/14 06:50:00,31.5, 4.8
2023/01/14 07:00:00,31.4, 4.8
2023/01/14 07:10:00,31.3, 4.6
2023/01/14 07:20:00,31.2, 4.9
2023/01/14 07:30:00,31.1, 4.9
2023/01/14 07:40:00,30.9, 4.9
2023/01/14 07:50:00,30.8, 4.9
2023/01/14 08:00:00,30.8, 4.8
2023/01/14 08:10:00,30.5, 4.7
2023/01/14 08:20:00,30.6, 4.9
2023/01/14 08:30:00,30.7, 4.8
2023/01/14 08:40:00,30.7, 5.0
2023/01/14 08:50:00,30.8, 5.2
2023/01/14 09:00:00,30.8, 5.7
2023/01/14 09:10:00,30.9, 5.4
2023/01/14 09:20:00,30.9, 5.4
2023/01/14 09:30:00,30.7, 5.2
2023/01/14 09:40:00,30.7, 5.3
2023/01/14 09:50:00,30.8, 5.7
2023/01/14 10:00:00,30.7, 5.6
2023/01/14 10:10:00,30.6, 5.4
2023/01/14 10:20:00,30.5, 5.5
2023/01/14 10:30:00,30.4, 5.5
2023/01/14 10:40:00,30.4, 5.6
2023/01/14 10:50:00,30.4, 5.3
2023/01/14 11:00:00,30.5, 5.3
2023/01/14 11:10:00,30.5, 5.2
2023/01/14 11:20:00,30.6, 6.0
2023/01/14 11:30:00,30.5, 6.0
2023/01/14 11:40:00,30.5, 5.9
2023/01/14 11:50:00,30.5, 5.8
2023/01/14 12:00:00,30.5, 6.0
2023/01/14 12:10:00,30.4, 6.2
2023/01/14 12:20:00,30.1, 6.2
2023/01/14 12:30:00,29.9, 6.7
2023/01/14 12:40:00,29.6, 6.5
2023/01/14 12:50:00,29.5, 6.1
2023/01/14 13:00:00,29.5, 6.4
2023/01/14 13:10:00,29.4, 6.3
2023/01/14 13:20:00,29.3, 6.2
2023/01/14 13:30:00,29.2, 6.3
2023/01/14 13:40:00,29.2, 6.3
2023/01/14 13:50:00,29.3, 6.3
2023/01/14 14:00:00,29.2, 6.3
2023/01/14 14:10:00,29.1, 6.2
2023/01/14 14:20:00,29.1, 5.9
2023/01/14 14:30:00,29.1, 5.8
2023/01/14 14:40:00,29.1, 5.7
2023/01/14 14:50:00,29.0, 5.7
2023/01/14 15:00:00,28.9, 5.3
2023/01/14 15:10:00,29.0, 5.2
2023/01/14 15:20:00,28.9, 5.9
2023/01/14 15:30:00,28.9, 5.5
2023/01/14 15:40:00,28.7, 5.5
2023/01/14 15:50:00,28.6, 5.3
2023/01/14 16:00:00,28.6, 5.1
2023/01/14 16:10:00,28.5, 5.0
2023/01/14 16:20:00,28.6, 4.9
2023/01/14 16:30:00,28.5, 4.8
2023/01/14 16:40:00,28.3, 4.7
2023/01/14 16:50:00,28.1, 4.6
2023/01/14 17:00:00,28.1, 4.7
2023/01/14 17:10:00,28.3, 4.8
2023/01/14 17:20:00,28.4, 4.4
2023/01/14 17:30:00,28.3, 4.4
2023/01/14 17:40:00,28.2, 4.2
2023/01/14 17:50:00,28.0, 4.4
2023/01/14 18:00:00,27.8, 4.1
2023/01/14 18:10:00,27.8, 4.2
2023/01/14 18:20:00,28.0, 4.3
2023/01/14 18:30:00,28.1, 4.3
2023/01/14 18:40:00,28.1, 4.5
2023/01/14 18:50:00,28.0, 4.2
2023/01/14 19:00:00,28.0, 4.2
2023/01/14 19:10:00,27.9, 4.3
2023/01/14 19:20:00,27.8, 4.1
2023/01/14 19:30:00,27.6, 4.4
2023/01/14 19:40:00,27.7, 4.2
2023/01/14 19:50:00,27.7, 4.1
2023/01/14 20:00:00,27.6, 4.2
2023/01/14 20:10:00,27.6, 4.5
2023/01/14 20:20:00,27.6, 3.9
2023/01/14 20:30:00,27.7, 4.0
2023/01/14 20:40:00,27.6, 4.1
2023/01/14 20:50:00,27.7, 3.8
2023/01/14 21:00:00,27.7, 4.1
2023/01/14 21:10:00,27.8, 4.1
2023/01/14 21:20:00,27.9, 3.6
2023/01/14 21:30:00,27.9, 3.8
2023/01/14 21:40:00,27.7, 3.8
2023/01/14 21:50:00,27.5, 3.6
2023/01/14 22:00:00,27.4, 3.7
2023/01/14 22:10:00,27.2, 4.2
2023/01/14 22:20:00,27.1, 4.4
2023/01/14 22:30:00,27.1, 4.2
2023/01/14 22:40:00,27.0, 3.9
2023/01/14 22:50:00,27.1, 4.3
2023/01/14 23:00:00,27.0, 3.9
2023/01/14 23:10:00,27.1, 4.2
2023/01/14 23:20:00,26.9, 4.0
2023/01/14 23:30:00,27.0, 4.0
2023/01/14 23:40:00,27.0, 3.8
2023/01/14 23:50:00,27.0, 3.9
